Tracking 18844 objects as of 21-Nov-2017
HD Live streaming from Space Station
objects crossing your sky now

MOLNIYA 1-90

Track MOLNIYA 1-90 now!
10-day predictions
MOLNIYA 1-90 is classified as:


NORAD ID: 24960
Int'l Code: 1997-054A
Perigee: 396.3 km
Apogee: 25,874.1 km
Inclination: 62.6 °
Period: 451.9 minutes
Semi major axis: 19506 km
RCS: 12.4754 m2 (large)
Launch date: September 24, 1997
Source: Commonwealth of Independent States (former USSR) (CIS)
Launch site: PLESETSK MISSILE AND SPACE COMPLEX (PKMTR)
aabbcc
Your satellite tracking list
Your tracking list is empty




NASA's NSSDC Master Catalog

Two Line Element Set (TLE):
1 24960U 97054A   17324.42752034  .00000243  00000-0  13015-3 0  9992
2 24960  62.6427 227.7932 6530677 292.5089  13.1942  3.18672094154865
Source of the keplerian elements: AFSPC